Weather History for Yankton, SD

Change the Weather History Date:

Saturday, April 6, 2013

  Actual Average Record
Temperature  
Mean Temperature 54 °F -  
Max Temperature 68 °F 57 °F 89 °F (1991)
Min Temperature 41 °F 30 °F 13 °F (1982)
Degree Days  
Heating Degree Days 10    
Growing Degree Days 4 (Base 50)    
Moisture  
Dew Point 37 °F    
Average Humidity 52    
Maximum Humidity 81    
Minimum Humidity 33    
Precipitation  
Precipitation 0.00 in - - ()
Sea Level Pressure  
Sea Level Pressure 29.63 in    
Wind  
Wind Speed 17 mph (WNW)    
Max Wind Speed 28 mph    
Max Gust Speed 33 mph    
Visibility 10 miles    
Events      
Averages and records for this station are not official NWS values.
T = Trace of Precipitation, MM = Missing Value Source: NWS Daily Summary

Daily Weather History Graph

Daily Weather History Graph

Search for Another Location

Airport:

Trip Planner

Search our weather history database for the weather conditions in past years. The results will help you decide how hot, cold, wet, or windy it might be!

Date:

Astronomy

Apr. 06, 2013 Rise Set
Actual Time 7:02 AM CDT 8:01 PM CDT
Civil Twilight 6:33 AM CDT 8:30 PM CDT
Nautical Twilight 5:59 AM CDT 9:05 PM CDT
Astronomical Twilight 5:23 AM CDT 9:41 PM CDT
Moon 4:52 AM CDT (4/6) 4:27 PM CDT (4/6)
Length of Visible Light 13h 57m
Length of Day
12h 59m
Waning Crescent, 15% of the Moon is Illuminated
Apr 6
Waning Crescent
Apr 10
New
Apr 18
First Quarter
Apr 25
Full
May 2
Last Quarter

Hourly Weather History & Observations

Time (CDT) Temp. Windchill Dew Point Humidity Pressure Visibility Wind Dir Wind Speed Gust Speed Precip Events Conditions
12:15 AM 60.8 °F - 35.6 °F 39% 29.57 in 10.0 mi South 23.0 mph 33.4 mph N/A   Overcast
12:35 AM 60.8 °F - 37.4 °F 42% 29.56 in 10.0 mi SSE 21.9 mph 32.2 mph N/A   Overcast
12:55 AM 59.0 °F - 37.4 °F 45% 29.55 in 10.0 mi SSE 20.7 mph 29.9 mph N/A   Overcast
1:15 AM 59.0 °F - 39.2 °F 48% 29.55 in 10.0 mi South 20.7 mph 26.5 mph N/A   Mostly Cloudy
1:35 AM 59.0 °F - 39.2 °F 48% 29.54 in 10.0 mi South 21.9 mph 26.5 mph N/A   Mostly Cloudy
1:55 AM 59.0 °F - 39.2 °F 48% 29.56 in 10.0 mi South 16.1 mph 28.8 mph N/A   Overcast
2:15 AM 57.2 °F - 39.2 °F 51% 29.55 in 10.0 mi SSE 16.1 mph 20.7 mph N/A   Mostly Cloudy
2:35 AM 57.2 °F - 39.2 °F 51% 29.54 in 10.0 mi SSE 15.0 mph 19.6 mph N/A   Scattered Clouds
2:55 AM 57.2 °F - 41.0 °F 55% 29.53 in 10.0 mi SSE 12.7 mph 18.4 mph N/A   Mostly Cloudy
3:15 AM 57.2 °F - 41.0 °F 55% 29.53 in 10.0 mi SE 5.8 mph - N/A   Mostly Cloudy
3:35 AM 55.4 °F - 41.0 °F 58% 29.53 in 10.0 mi ESE 8.1 mph - N/A   Mostly Cloudy
3:55 AM 55.4 °F - 41.0 °F 58% 29.53 in 10.0 mi SSE 8.1 mph - N/A   Mostly Cloudy
4:15 AM 55.4 °F - 41.0 °F 58% 29.52 in 10.0 mi South 8.1 mph - N/A   Clear
4:35 AM 55.4 °F - 41.0 °F 58% 29.53 in 10.0 mi SSW 8.1 mph - N/A   Clear
4:55 AM 55.4 °F - 41.0 °F 58% 29.53 in 10.0 mi SSW 9.2 mph - N/A   Clear
5:15 AM 53.6 °F - 37.4 °F 54% 29.54 in 10.0 mi West 21.9 mph - N/A   Clear
5:35 AM 48.2 °F - 33.8 °F 58% 29.55 in 10.0 mi West 19.6 mph 26.5 mph N/A   Clear
5:55 AM 46.4 °F 39.5 °F 33.8 °F 62% 29.55 in 10.0 mi West 17.3 mph 20.7 mph N/A   Clear
6:15 AM 46.4 °F 39.2 °F 32.0 °F 57% 29.57 in 10.0 mi West 18.4 mph 25.3 mph N/A   Clear
6:35 AM 44.6 °F 37.8 °F 33.8 °F 66% 29.57 in 10.0 mi West 15.0 mph - N/A   Clear
6:55 AM 42.8 °F 35.1 °F 33.8 °F 70% 29.58 in 10.0 mi West 16.1 mph - N/A   Clear
7:15 AM 42.8 °F 33.8 °F 32.0 °F 66% 29.59 in 10.0 mi West 21.9 mph 25.3 mph N/A   Clear
7:35 AM 41.0 °F 32.2 °F 32.0 °F 70% 29.59 in 10.0 mi West 18.4 mph 23.0 mph N/A   Clear
7:55 AM 41.0 °F 31.1 °F 32.0 °F 70% 29.58 in 10.0 mi WNW 23.0 mph 32.2 mph N/A   Clear
8:15 AM 41.0 °F 31.6 °F 30.2 °F 65% 29.59 in 10.0 mi WNW 20.7 mph 31.1 mph N/A   Clear
8:35 AM 41.0 °F 31.9 °F 32.0 °F 70% 29.59 in 10.0 mi WNW 19.6 mph 29.9 mph N/A   Partly Cloudy
8:55 AM 42.8 °F 34.5 °F 32.0 °F 66% 29.61 in 10.0 mi West 18.4 mph 23.0 mph N/A   Clear
9:15 AM 42.8 °F 34.8 °F 32.0 °F 66% 29.61 in 10.0 mi West 17.3 mph 26.5 mph N/A   Clear
9:35 AM 41.0 °F 32.2 °F 33.8 °F 76% 29.63 in 10.0 mi West 18.4 mph 25.3 mph N/A   Clear
9:55 AM 41.0 °F 32.2 °F 35.6 °F 81% 29.63 in 8.0 mi West 18.4 mph - N/A   Scattered Clouds
10:15 AM 42.8 °F 34.0 °F 35.6 °F 76% 29.63 in 10.0 mi WNW 20.7 mph 25.3 mph N/A   Partly Cloudy
10:35 AM 44.6 °F 36.4 °F 37.4 °F 76% 29.63 in 10.0 mi WNW 20.7 mph - N/A   Clear
10:55 AM 46.4 °F 38.1 °F 37.4 °F 71% 29.64 in 10.0 mi WNW 24.2 mph 27.6 mph N/A   Clear
11:15 AM 48.2 °F - 33.8 °F 58% 29.64 in 10.0 mi WNW 23.0 mph 27.6 mph N/A   Scattered Clouds
11:35 AM 51.8 °F - 35.6 °F 54% 29.64 in 10.0 mi NW 23.0 mph 27.6 mph N/A   Partly Cloudy
11:55 AM 53.6 °F - 35.6 °F 51% 29.64 in 10.0 mi WNW 21.9 mph 27.6 mph N/A   Partly Cloudy
12:15 PM 57.2 °F - 35.6 °F 44% 29.64 in 10.0 mi NW 27.6 mph 32.2 mph N/A   Scattered Clouds
12:35 PM 57.2 °F - 35.6 °F 44% 29.64 in 10.0 mi NW 24.2 mph 33.4 mph N/A   Scattered Clouds
12:55 PM 59.0 °F - 33.8 °F 39% 29.64 in 10.0 mi WNW 24.2 mph 33.4 mph N/A   Clear
1:15 PM 60.8 °F - 33.8 °F 36% 29.64 in 10.0 mi NW 21.9 mph 31.1 mph N/A   Clear
1:35 PM 60.8 °F - 33.8 °F 36% 29.63 in 10.0 mi WNW 20.7 mph 28.8 mph N/A   Clear
1:55 PM 60.8 °F - 33.8 °F 36% 29.64 in 10.0 mi WNW 24.2 mph 29.9 mph N/A   Clear
2:15 PM 62.6 °F - 35.6 °F 37% 29.63 in 10.0 mi WNW 23.0 mph 28.8 mph N/A   Clear
2:35 PM 64.4 °F - 37.4 °F 37% 29.64 in 10.0 mi WNW 26.5 mph 31.1 mph N/A   Clear
2:55 PM 64.4 °F - 37.4 °F 37% 29.64 in 10.0 mi NW 21.9 mph 31.1 mph N/A   Clear
3:15 PM 66.2 °F - 37.4 °F 35% 29.64 in 10.0 mi NW 24.2 mph 27.6 mph N/A   Clear
3:35 PM 66.2 °F - 37.4 °F 35% 29.64 in 10.0 mi NW 17.3 mph 28.8 mph N/A   Clear
3:55 PM 68.0 °F - 37.4 °F 33% 29.64 in 10.0 mi NW 20.7 mph 28.8 mph N/A   Clear
4:15 PM 68.0 °F - 37.4 °F 33% 29.64 in 10.0 mi NW 18.4 mph 29.9 mph N/A   Clear
4:35 PM 68.0 °F - 39.2 °F 35% 29.63 in 10.0 mi NW 19.6 mph 24.2 mph N/A   Clear
4:55 PM 66.2 °F - 37.4 °F 35% 29.64 in 10.0 mi NW 16.1 mph - N/A   Partly Cloudy
5:15 PM 66.2 °F - 37.4 °F 35% 29.64 in 10.0 mi NW 12.7 mph 21.9 mph N/A   Mostly Cloudy
5:35 PM 66.2 °F - 37.4 °F 35% 29.65 in 10.0 mi NNW 17.3 mph - N/A   Mostly Cloudy
5:55 PM 64.4 °F - 39.2 °F 40% 29.67 in 10.0 mi NW 12.7 mph - N/A   Mostly Cloudy
6:15 PM 66.2 °F - 39.2 °F 37% 29.68 in 10.0 mi NNW 12.7 mph 18.4 mph N/A   Mostly Cloudy
6:35 PM 64.4 °F - 39.2 °F 40% 29.68 in 10.0 mi NNW 17.3 mph - N/A   Partly Cloudy
6:55 PM 64.4 °F - 39.2 °F 40% 29.69 in 10.0 mi NNW 8.1 mph - N/A   Clear
7:15 PM 60.8 °F - 41.0 °F 48% 29.69 in 10.0 mi WNW 8.1 mph - N/A   Clear
7:35 PM 59.0 °F - 39.2 °F 48% 29.70 in 10.0 mi WNW 4.6 mph - N/A   Clear
7:55 PM 60.8 °F - 39.2 °F 45% 29.70 in 10.0 mi WNW 5.8 mph - N/A   Clear
8:15 PM 60.8 °F - 39.2 °F 45% 29.71 in 10.0 mi West 5.8 mph - N/A   Clear
8:35 PM 55.4 °F - 37.4 °F 51% 29.72 in 10.0 mi North 5.8 mph - N/A   Clear
8:55 PM 51.8 °F - 35.6 °F 54% 29.73 in 10.0 mi NNW 4.6 mph - N/A   Clear
9:15 PM 53.6 °F - 39.2 °F 58% 29.74 in 10.0 mi North 5.8 mph - N/A   Clear
9:35 PM 53.6 °F - 39.2 °F 58% 29.75 in 10.0 mi North 8.1 mph - N/A   Clear
9:55 PM 53.6 °F - 37.4 °F 54% 29.76 in 10.0 mi NNE 5.8 mph - N/A   Clear
10:15 PM 53.6 °F - 37.4 °F 54% 29.77 in 10.0 mi NE 5.8 mph - N/A   Clear
10:35 PM 50.0 °F - 35.6 °F 58% 29.78 in 10.0 mi Calm Calm - N/A   Clear
10:55 PM 51.8 °F - 35.6 °F 54% 29.78 in 10.0 mi North 4.6 mph - N/A   Clear
11:15 PM 50.0 °F - 37.4 °F 62% 29.79 in 10.0 mi NNE 8.1 mph - N/A   Clear
11:35 PM 48.2 °F - 35.6 °F 62% 29.79 in 10.0 mi NE 8.1 mph - N/A   Clear
11:55 PM 46.4 °F 45.2 °F 35.6 °F 66% 29.80 in 10.0 mi NNE 3.5 mph - N/A   Clear